DW8463 Weather Reports


Display with metric or nautical units.
time (UTC)temp
F
wind
direction
speed
MPH
gust
MPH
rain 1hr
in
rain 24hr
in
rain mn
in
humidity
%
barometer
mb
20200407182304 63 316 1.0 6.0 0.00 0.12 0.12 77 1003.0
20200407181804 63 310 3.0 8.0 0.00 0.12 0.12 77 1003.0
20200407181304 63 4 2.0 8.0 0.00 0.12 0.12 77 1003.0
20200407180804 64 318 3.0 8.0 0.00 0.12 0.12 77 1003.0
20200407180304 64 320 1.0 8.0 0.00 0.12 0.12 81 1002.9
20200407175804 63 309 3.0 6.0 0.00 0.12 0.12 100 1002.9
20200407175304 63 307 2.0 5.0 0.00 0.12 0.12 100 1002.8
20200407174804 63 303 0.0 3.0 0.00 0.12 0.12 100 1002.7
20200407174304 62 0 0.0 0.0 0.00 0.12 0.12 100 1002.8
20200407173804 62 338 1.0 7.0 0.00 0.12 0.12 100 1002.8
20200407173305 62 296 0.0 3.0 0.00 0.12 0.12 100 1002.9
20200407172804 61 280 0.0 1.0 0.00 0.12 0.12 100 1002.9
20200407172304 61 288 0.0 2.0 0.00 0.12 0.12 100 1002.8
20200407171807 62 312 0.0 5.0 0.00 0.12 0.12 100 1002.8
20200407171305 61 276 0.0 3.0 0.00 0.12 0.12 100 1002.8
20200407170804 61 278 0.0 6.0 0.00 0.12 0.12 100 1002.9
20200407170305 60 286 1.0 5.0 0.00 0.12 0.12 100 1002.9
20200407165805 60 263 0.0 9.0 0.00 0.12 0.12 100 1003.1
20200407165304 60 297 3.0 8.0 0.00 0.12 0.12 100 1003.1
20200407164804 60 296 3.0 8.0 0.00 0.12 0.12 100 1003.0
20200407164304 60 292 0.0 5.0 0.00 0.12 0.12 100 1002.9
20200407163804 60 283 4.0 8.0 0.00 0.12 0.12 100 1002.9
20200407163304 60 309 2.0 7.0 0.00 0.12 0.12 100 1002.9
20200407162805 60 256 1.0 5.0 0.00 0.12 0.12 100 1002.8
20200407162304 59 291 0.0 0.0 0.00 0.12 0.12 100 1002.9
20200407161804 59 263 1.0 6.0 0.00 0.12 0.12 100 1003.0
20200407161305 59 266 1.0 6.0 0.00 0.12 0.12 100 1002.9
20200407160804 58 288 0.0 3.0 0.00 0.12 0.12 100 1002.9
20200407160304 58 247 0.0 1.0 0.00 0.12 0.12 100 1003.0
20200407155804 58 258 0.0 0.0 0.00 0.12 0.12 100 1002.9
20200407155304 57 258 0.0 0.0 0.00 0.12 0.12 100 1002.9
20200407154804 57 252 0.0 0.0 0.00 0.12 0.12 100 1002.9
20200407154304 57 252 0.0 0.0 0.00 0.12 0.12 100 1003.1
20200407153804 57 215 0.0 5.0 0.00 0.12 0.12 100 1003.2
20200407153304 57 214 0.0 3.0 0.00 0.12 0.12 100 1003.4
20200407152804 57 222 0.0 0.0 0.00 0.12 0.12 100 1003.0
20200407152305 56 222 0.0 0.0 0.00 0.12 0.12 100 1003.1
20200407151826 56 222 0.0 0.0 0.00 0.12 0.12 100 1003.1
20200407151304 56 225 0.0 3.0 0.00 0.12 0.12 100 1003.2
20200407150805 56 199 0.0 3.0 0.00 0.12 0.12 100 1003.3
20200407150304 56 259 1.0 3.0 0.00 0.12 0.12 100 1003.0
20200407145804 56 230 1.0 6.0 0.00 0.12 0.12 100 1003.0
20200407145304 56 185 2.0 12.0 0.00 0.12 0.12 100 1003.2
20200407144804 56 184 1.0 5.0 0.00 0.12 0.12 100 1003.1
20200407144304 56 198 1.0 6.0 0.00 0.12 0.12 100 1003.3
20200407143804 57 212 1.0 6.0 0.00 0.12 0.12 100 1003.0
20200407143304 56 188 2.0 7.0 0.00 0.12 0.12 100 1002.3
20200407142804 56 196 1.0 6.0 0.00 0.12 0.12 100 1002.6
20200407142305 56 194 2.0 6.0 0.00 0.12 0.12 100 1003.0
20200407141804 56 216 0.0 5.0 0.00 0.12 0.12 100 1003.1
20200407141304 55 194 0.0 0.0 0.00 0.12 0.12 100 1003.4
20200407140806 55 255 0.0 0.0 0.00 0.12 0.12 100 1003.3
20200407140304 55 255 1.0 3.0 0.00 0.12 0.12 100 1002.9
20200407135804 55 137 0.0 0.0 0.00 0.12 0.12 100 1002.9
20200407135304 54 137 0.0 0.0 0.00 0.12 0.12 100 1003.0
20200407134804 54 137 0.0 0.0 0.00 0.12 0.12 100 1002.6
20200407134304 54 137 0.0 0.0 0.00 0.12 0.12 100 1002.6
20200407133804 54 137 0.0 0.0 0.00 0.12 0.12 100 1002.8
20200407133304 53 137 0.0 0.0 0.00 0.12 0.12 100 1003.1
20200407132804 53 137 0.0 0.0 0.00 0.12 0.12 100 1003.2
20200407132304 53 137 0.0 0.0 0.00 0.12 0.12 100 1003.3
20200407131804 53 137 0.0 0.0 0.00 0.12 0.12 100 1003.4
20200407131304 53 137 1.0 3.0 0.00 0.12 0.12 100 1003.5
20200407130804 53 140 2.0 5.0 0.00 0.12 0.12 100 1003.3
20200407130304 53 103 1.0 3.0 0.00 0.12 0.12 100 1003.3
20200407125804 53 112 0.0 0.0 0.00 0.12 0.12 93 1003.2
20200407125304 53 109 0.0 0.0 0.00 0.12 0.12 93 1003.4
20200407124804 53 113 0.0 3.0 0.00 0.12 0.12 93 1003.6
20200407124304 53 92 0.0 0.0 0.00 0.12 0.12 93 1003.8
20200407123804 53 92 0.0 3.0 0.00 0.12 0.12 93 1004.1
20200407123304 53 137 0.0 3.0 0.00 0.12 0.12 93 1004.1
20200407122804 53 173 0.0 3.0 0.00 0.12 0.12 93 1004.0
20200407122305 53 170 2.0 7.0 0.00 0.12 0.12 93 1003.6
20200407121804 52 154 1.0 7.0 0.00 0.12 0.12 93 1003.4
20200407121304 52 174 0.0 5.0 0.00 0.12 0.12 93 1003.5
20200407120805 52 171 1.0 7.0 0.00 0.12 0.12 93 1003.5
20200407120304 52 146 2.0 7.0 0.00 0.12 0.12 93 1003.5
20200407115805 52 166 3.0 9.0 0.00 0.12 0.12 93 1003.5
20200407115306 52 170 2.0 7.0 0.00 0.12 0.12 93 1003.4
20200407114305 52 174 1.0 7.0 0.00 0.12 0.12 93 1003.3
20200407113804 52 154 2.0 7.0 0.07 0.12 0.12 93 1003.1
20200407113304 52 145 2.0 8.0 0.12 0.12 0.12 93 1003.3
20200407112805 52 192 2.0 8.0 0.12 0.12 0.12 93 1003.4
20200407112305 52 139 0.0 6.0 0.12 0.12 0.12 93 1003.2
20200407111804 52 135 1.0 9.0 0.12 0.12 0.12 93 1003.0
20200407111304 51 142 1.0 3.0 0.12 0.12 0.12 93 1003.3
20200407110804 51 127 0.0 0.0 0.12 0.12 0.12 93 1003.4
20200407110305 51 128 0.0 3.0 0.12 0.12 0.12 93 1003.7
20200407105804 51 187 0.0 0.0 0.12 0.12 0.12 100 1004.3
20200407105306 51 54 0.0 0.0 0.12 0.12 0.12 100 1004.4
20200407104804 51 58 2.0 7.0 0.12 0.12 0.12 100 1004.9
20200407104304 51 39 1.0 3.0 0.12 0.12 0.12 100 1005.2
20200407103804 51 213 1.0 8.0 0.05 0.05 0.05 100 1006.2
20200407103304 51 312 2.0 6.0 0.00 0.00 0.00 100 1006.0
20200407102805 51 204 1.0 7.0 0.00 0.00 0.00 100 1005.3
20200407102306 51 248 1.0 5.0 0.00 0.00 0.00 100 1005.2
20200407101804 51 212 0.0 5.0 0.00 0.00 0.00 100 1004.9
20200407101304 51 233 3.0 12.0 0.00 0.00 0.00 100 1004.2
20200407100804 51 178 3.0 9.0 0.00 0.00 0.00 100 1003.5
20200407100304 51 178 1.0 8.0 0.00 0.00 0.00 100 1003.2
20200407095805 50 158 6.0 15.0 0.00 0.00 0.00 100 1003.0
20200407095306 50 142 6.0 12.0 0.00 0.00 0.00 100 1003.2
20200407094804 50 145 5.0 14.0 0.00 0.00 0.00 100 1003.6
20200407094304 50 143 3.0 7.0 0.00 0.00 0.00 100 1004.7
20200407093804 50 172 1.0 5.0 0.00 0.00 0.00 100 1005.3
20200407093304 50 164 2.0 5.0 0.00 0.00 0.00 100 1005.8
20200407092804 50 140 0.0 1.0 0.00 0.00 0.00 100 1006.1
20200407092306 50 140 0.0 0.0 0.00 0.00 0.00 100 1006.4
20200407091807 50 140 0.0 3.0 0.00 0.00 0.00 100 1006.3
20200407091305 50 140 1.0 3.0 0.00 0.00 0.00 100 1006.2
20200407090804 50 98 0.0 0.0 0.00 0.00 0.00 100 1006.3
20200407090304 50 98 0.0 0.0 0.00 0.00 0.00 100 1006.3
20200407085804 50 100 2.0 5.0 0.00 0.00 0.00 100 1006.2
20200407085306 50 113 1.0 3.0 0.00 0.00 0.00 100 1006.3
20200407084804 50 74 0.0 3.0 0.00 0.00 0.00 100 1006.5
20200407084309 50 61 0.0 0.0 0.00 0.00 0.00 100 1006.7
20200407083804 50 61 0.0 0.0 0.00 0.00 0.00 100 1006.8
20200407083305 50 76 1.0 3.0 0.00 0.00 0.00 100 1006.8
20200407082804 50 73 0.0 2.0 0.00 0.00 0.00 100 1006.7
20200407082306 50 69 0.0 0.0 0.00 0.00 0.00 100 1006.8
20200407081804 50 69 0.0 0.0 0.00 0.00 0.00 100 1007.0
20200407081304 50 69 0.0 0.0 0.00 0.00 0.00 100 1006.9
20200407080804 50 69 0.0 0.0 0.00 0.00 0.00 100 1006.9
20200407080305 50 69 0.0 0.0 0.00 0.00 0.00 100 1006.9
20200407075804 50 69 0.0 0.0 0.00 0.00 0.00 93 1007.0
20200407075306 50 69 0.0 0.0 0.00 0.00 0.00 93 1006.8
20200407074804 50 68 0.0 0.0 0.00 0.00 0.00 93 1006.9
20200407074304 50 66 0.0 0.0 0.00 0.00 0.00 93 1007.0
20200407073804 50 66 0.0 0.0 0.00 0.00 0.00 93 1007.0
20200407073305 50 66 0.0 0.0 0.00 0.00 0.00 93 1007.0
20200407072804 50 78 0.0 0.0 0.00 0.00 0.00 93 1006.9
20200407072306 50 78 0.0 0.0 0.00 0.00 0.00 93 1006.7
20200407071804 50 78 0.0 0.0 0.00 0.00 0.00 93 1006.7
20200407071304 50 78 0.0 3.0 0.00 0.00 0.00 93 1006.7
20200407070804 50 83 1.0 3.0 0.00 0.00 0.00 93 1006.6
20200407070304 50 108 0.0 3.0 0.00 0.00 0.00 93 1006.7
20200407065804 50 163 0.0 3.0 0.00 0.00 0.00 93 1006.7
20200407065304 50 149 1.0 6.0 0.00 0.00 0.00 93 1006.7
20200407064804 50 129 0.0 3.0 0.00 0.00 0.00 93 1006.8
20200407064304 50 130 2.0 5.0 0.00 0.00 0.00 93 1006.8
20200407063804 49 135 2.0 3.0 0.00 0.00 0.00 93 1007.0
20200407063304 49 134 0.0 3.0 0.00 0.00 0.00 93 1007.2
20200407062805 49 153 1.0 3.0 0.00 0.00 0.00 93 1007.3
20200407062304 49 166 0.0 0.0 0.00 0.00 0.00 93 1007.2
20200407061804 49 143 1.0 6.0 0.00 0.00 0.00 93 1007.2
20200407061304 49 141 2.0 10.0 0.00 0.00 0.00 93 1007.2
20200407060805 49 142 1.0 5.0 0.00 0.00 0.00 93 1007.2
20200407060304 49 98 2.0 6.0 0.00 0.00 0.00 93 1007.1
20200407055804 49 125 0.0 3.0 0.00 0.00 0.00 87 1007.1
20200407055304 49 148 1.0 7.0 0.00 0.00 0.00 87 1007.3
20200407054804 49 147 1.0 6.0 0.00 0.00 0.00 87 1007.3
20200407054304 49 137 0.0 0.0 0.00 0.00 0.00 87 1007.3
20200407053804 49 111 0.0 3.0 0.00 0.00 0.00 87 1007.5
20200407053304 49 120 0.0 3.0 0.00 0.00 0.00 87 1007.5
20200407052804 49 123 0.0 3.0 0.00 0.00 0.00 87 1007.6
20200407052304 49 112 0.0 3.0 0.00 0.00 0.00 87 1007.6
20200407051804 49 136 0.0 6.0 0.00 0.00 0.00 87 1007.7
20200407051304 49 110 1.0 6.0 0.00 0.00 0.00 87 1007.8
20200407050836 49 138 0.0 3.0 0.00 0.00 0.00 87 1008.0
20200407050304 49 137 0.0 1.0 0.00 0.00 0.00 87 1008.0
20200407045804 49 134 0.0 0.0 0.00 0.00 0.00 93 1008.2
20200407045304 49 134 0.0 0.0 0.00 0.00 0.00 93 1008.3
20200407044804 49 134 0.0 3.0 0.00 0.00 0.00 93 1008.2
20200407044304 49 101 0.0 0.0 0.00 0.00 0.00 93 1008.2
20200407043804 49 97 1.0 3.0 0.00 0.00 0.00 93 1008.2
20200407043304 49 120 0.0 5.0 0.00 0.00 0.00 93 1008.3
20200407042804 49 97 2.0 7.0 0.00 0.00 0.00 93 1008.3
20200407042304 49 111 0.0 3.0 0.00 0.00 0.00 93 1008.4
20200407041804 49 136 0.0 3.0 0.00 0.00 0.00 93 1008.4
20200407041304 49 127 0.0 3.0 0.00 0.00 0.00 93 1008.4
20200407040805 49 140 0.0 3.0 0.00 0.00 0.00 93 1008.4
20200407040304 49 132 1.0 5.0 0.00 0.00 0.00 93 1008.5
20200407035804 49 129 2.0 8.0 0.00 0.00 0.00 93 1008.6
20200407035304 49 118 1.0 8.0 0.00 0.00 0.00 93 1008.6
20200407034804 49 130 1.0 3.0 0.00 0.00 0.00 93 1008.7
20200407034304 49 124 1.0 7.0 0.00 0.00 0.00 93 1008.8
20200407033804 49 133 1.0 3.0 0.00 0.00 0.00 93 1008.8
20200407033304 49 115 0.0 3.0 0.00 0.00 0.00 93 1008.8
20200407032804 49 149 0.0 3.0 0.00 0.00 0.00 93 1008.8
20200407032304 49 120 2.0 9.0 0.00 0.00 0.00 93 1008.9
20200407031804 49 134 0.0 6.0 0.00 0.00 0.00 93 1009.0
20200407031305 49 140 2.0 8.0 0.00 0.00 0.00 93 1009.0
20200407030804 49 144 3.0 8.0 0.00 0.00 0.00 93 1009.0
20200407030304 49 139 2.0 9.0 0.00 0.00 0.00 93 1009.0
20200407025804 49 133 5.0 12.0 0.00 0.00 0.00 93 1009.1
20200407025304 49 128 2.0 7.0 0.00 0.00 0.00 93 1009.2
20200407024804 49 130 1.0 7.0 0.00 0.00 0.00 93 1009.4
20200407024304 49 144 1.0 12.0 0.00 0.00 0.00 93 1009.3
20200407023804 49 117 3.0 10.0 0.00 0.00 0.00 93 1009.1
20200407023304 49 145 4.0 9.0 0.00 0.00 0.00 93 1009.2
20200407022805 50 131 3.0 10.0 0.00 0.00 0.00 93 1009.3
20200407022304 50 138 3.0 12.0 0.00 0.00 0.00 93 1009.4
20200407021804 50 163 3.0 10.0 0.00 0.00 0.00 93 1009.5
20200407021305 50 140 1.0 8.0 0.00 0.00 0.00 93 1009.6
20200407020804 50 162 2.0 12.0 0.00 0.00 0.00 93 1009.6
20200407020304 50 131 3.0 10.0 0.00 0.00 0.00 93 1009.5
20200407015804 50 138 0.0 12.0 0.00 0.00 0.00 87 1009.6
20200407015304 50 139 4.0 9.0 0.00 0.00 0.00 87 1009.6
20200407014804 50 130 5.0 12.0 0.00 0.00 0.00 87 1009.5
20200407014304 51 137 1.0 8.0 0.00 0.00 0.00 87 1009.5
20200407013804 51 115 2.0 10.0 0.00 0.00 0.00 87 1009.5
20200407013304 51 130 0.0 5.0 0.00 0.00 0.00 87 1009.5
20200407012804 51 134 2.0 8.0 0.00 0.00 0.00 87 1009.5
20200407012304 51 129 1.0 9.0 0.00 0.00 0.00 87 1009.4
20200407011804 51 156 1.0 5.0 0.00 0.00 0.00 87 1009.4
20200407011304 51 135 1.0 7.0 0.00 0.00 0.00 87 1009.3
20200407010804 51 130 0.0 5.0 0.00 0.00 0.00 87 1009.2
20200407010304 51 104 2.0 7.0 0.00 0.00 0.00 87 1009.3
20200407005804 51 165 2.0 8.0 0.00 0.00 0.00 87 1009.4
20200407005304 51 169 3.0 9.0 0.00 0.00 0.00 87 1009.5
20200407004804 51 169 0.0 8.0 0.00 0.00 0.00 87 1009.6
20200407004304 52 150 0.0 5.0 0.00 0.00 0.00 87 1009.7
20200407003804 52 167 1.0 7.0 0.00 0.00 0.00 87 1009.7
20200407003304 52 163 1.0 6.0 0.00 0.00 0.00 87 1009.6
20200407002804 52 164 0.0 3.0 0.00 0.00 0.00 87 1009.6
20200407002304 52 149 3.0 10.0 0.00 0.00 0.00 87 1009.5
20200407001805 52 146 3.0 7.0 0.00 0.00 0.00 87 1009.4
20200407001304 52 152 3.0 12.0 0.00 0.00 0.00 87 1009.4
20200407000805 53 156 2.0 7.0 0.00 0.00 0.00 87 1009.4
20200407000304 53 180 1.0 7.0 0.00 0.00 0.00 87 1009.6
20200406235804 53 175 3.0 10.0 0.00 0.00 0.00 81 1009.5
20200406235304 53 156 3.0 12.0 0.00 0.00 0.00 81 1009.7
20200406234804 53 156 1.0 7.0 0.00 0.00 0.00 81 1009.7
20200406234304 53 135 4.0 9.0 0.00 0.00 0.00 81 1009.7
20200406233804 53 140 1.0 8.0 0.00 0.00 0.00 81 1009.6
20200406233305 53 138 2.0 9.0 0.00 0.00 0.00 81 1009.6
20200406232804 53 151 1.0 7.0 0.00 0.00 0.00 81 1009.8
20200406232304 53 139 0.0 7.0 0.00 0.00 0.00 81 1009.8
20200406231804 53 144 0.0 0.0 0.00 0.00 0.00 81 1009.8
20200406231304 53 128 2.0 10.0 0.00 0.00 0.00 81 1009.7
20200406230804 54 152 1.0 6.0 0.00 0.00 0.00 81 1009.7
20200406230304 54 141 1.0 9.0 0.00 0.00 0.00 81 1009.7
20200406225804 54 162 3.0 9.0 0.00 0.00 0.00 81 1009.7
20200406225304 54 124 3.0 9.0 0.00 0.00 0.00 81 1009.6
20200406224804 54 116 2.0 6.0 0.00 0.00 0.00 81 1009.6
20200406224304 54 151 2.0 8.0 0.00 0.00 0.00 81 1009.6
20200406223804 55 168 3.0 8.0 0.00 0.00 0.00 81 1009.5
20200406223304 55 127 5.0 10.0 0.00 0.00 0.00 81 1009.5
20200406222804 55 133 1.0 9.0 0.00 0.00 0.00 81 1009.7
20200406222304 54 143 1.0 12.0 0.00 0.00 0.00 81 1009.6
20200406221804 54 137 4.0 13.0 0.00 0.00 0.00 81 1009.6
20200406221304 54 170 2.0 8.0 0.00 0.00 0.00 81 1009.6
20200406220804 54 153 4.0 12.0 0.00 0.00 0.00 81 1009.6
20200406220304 54 171 0.0 7.0 0.00 0.00 0.00 81 1009.5
20200406215805 54 165 2.0 6.0 0.00 0.00 0.00 76 1009.5
20200406215304 54 152 2.0 7.0 0.00 0.00 0.00 76 1009.6
20200406214804 54 166 3.0 12.0 0.00 0.00 0.00 76 1009.7
20200406214304 54 169 5.0 12.0 0.00 0.00 0.00 76 1009.8
20200406213804 55 134 2.0 9.0 0.00 0.00 0.00 76 1009.7
20200406213304 55 175 1.0 7.0 0.00 0.00 0.00 76 1009.8
20200406212804 55 158 3.0 10.0 0.00 0.00 0.00 76 1009.8
20200406212304 55 164 2.0 7.0 0.00 0.00 0.00 76 1009.8
20200406211804 55 157 3.0 9.0 0.00 0.00 0.00 76 1009.9
20200406211304 56 165 2.0 8.0 0.00 0.00 0.00 76 1010.0
20200406210804 56 140 6.0 12.0 0.00 0.00 0.00 76 1010.0
20200406210304 56 159 2.0 8.0 0.00 0.00 0.00 76 1010.0
20200406205804 57 193 1.0 9.0 0.00 0.00 0.00 76 1010.1
20200406205305 56 164 2.0 10.0 0.00 0.00 0.00 76 1010.1
20200406204804 56 192 3.0 10.0 0.00 0.00 0.00 76 1010.2
20200406204304 56 166 5.0 12.0 0.00 0.00 0.00 76 1010.2
20200406203804 56 184 4.0 10.0 0.00 0.00 0.00 76 1010.2
20200406203304 57 174 1.0 8.0 0.00 0.00 0.00 76 1010.3
20200406202804 57 196 2.0 12.0 0.00 0.00 0.00 76 1010.2
20200406202305 57 187 2.0 8.0 0.00 0.00 0.00 76 1010.1
20200406201804 57 155 4.0 12.0 0.00 0.00 0.00 76 1010.1
20200406201304 57 147 3.0 12.0 0.00 0.00 0.00 76 1010.1
20200406200804 57 167 2.0 8.0 0.00 0.00 0.00 76 1010.2
20200406200304 57 181 3.0 13.0 0.00 0.00 0.00 76 1010.2
20200406195805 58 187 5.0 12.0 0.00 0.00 0.00 76 1010.2
20200406195303 58 181 5.0 12.0 0.00 0.00 0.00 76 1010.3
20200406194804 59 188 4.0 13.0 0.00 0.00 0.00 76 1010.3
20200406194304 58 163 6.0 13.0 0.00 0.00 0.00 76 1010.3
20200406193804 58 184 3.0 12.0 0.00 0.00 0.00 76 1010.3
20200406193304 59 138 7.0 15.0 0.00 0.00 0.00 76 1010.4
20200406192804 59 134 2.0 10.0 0.00 0.00 0.00 76 1010.5
20200406192304 58 147 1.0 14.0 0.00 0.00 0.00 76 1010.6
20200406191804 58 145 4.0 14.0 0.00 0.00 0.00 76 1010.7
20200406191304 58 169 5.0 12.0 0.00 0.00 0.00 76 1010.8
20200406190804 57 173 4.0 15.0 0.00 0.00 0.00 76 1010.8
20200406190304 57 144 3.0 10.0 0.00 0.00 0.00 76 1010.9
20200406185804 57 167 6.0 13.0 0.00 0.00 0.00 71 1011.0
20200406185304 57 190 4.0 12.0 0.00 0.00 0.00 71 1011.2
20200406184804 57 196 1.0 7.0 0.00 0.00 0.00 71 1011.3
20200406184304 55 136 3.0 12.0 0.00 0.00 0.00 71 1011.4
20200406183805 55 153 2.0 8.0 0.00 0.00 0.00 71 1011.5
20200406183304 55 167 3.0 10.0 0.00 0.00 0.00 71 1011.6
20200406182804 54 140 4.0 12.0 0.00 0.00 0.00 71 1011.7